Weather History for Ithaca, NY

Change the Weather History Date:

Wednesday, May 30, 2012

  Actual Average Record
Temperature  
Mean Temperature 64 °F -  
Max Temperature 74 °F 71 °F 89 °F (1929)
Min Temperature 52 °F 49 °F 31 °F (1949)
Degree Days  
Heating Degree Days 1    
Growing Degree Days 14 (Base 50)    
Moisture  
Dew Point 58 °F    
Average Humidity 77    
Maximum Humidity 100    
Minimum Humidity 53    
Precipitation  
Precipitation 0.00 in - - ()
Sea Level Pressure  
Sea Level Pressure 29.78 in    
Wind  
Wind Speed 3 mph (NW)    
Max Wind Speed 12 mph    
Max Gust Speed -    
Visibility 9 miles    
Events Fog    
Averages and records for this station are not official NWS values.
T = Trace of Precipitation, MM = Missing Value Source: NWS Daily Summary

Daily Weather History Graph

Daily Weather History Graph

Search for Another Location

Airport:

Trip Planner

Search our weather history database for the weather conditions in past years. The results will help you decide how hot, cold, wet, or windy it might be!

Date:

Astronomy

May. 30, 2012 Rise Set
Actual Time 5:31 AM EDT 8:35 PM EDT
Civil Twilight 4:58 AM EDT 9:09 PM EDT
Nautical Twilight 4:14 AM EDT 9:52 PM EDT
Astronomical Twilight 3:23 AM EDT 10:44 PM EDT
Moon 3:05 PM EDT (5/30) 2:02 AM EDT (5/30)
Length of Visible Light 16h 11m
Length of Day
15h 03m
Waxing Gibbous, 70% of the Moon is Illuminated
May 30
Waxing Gibbous
Jun 4
Full
Jun 11
Last Quarter
Jun 19
New
Jun 26
First Quarter

Hourly Weather History & Observations

Time (EDT) Temp. Dew Point Humidity Pressure Visibility Wind Dir Wind Speed Gust Speed Precip Events Conditions
12:56 AM 64.9 °F 63.0 °F 93% 29.78 in 10.0 mi Calm Calm - N/A   Mostly Cloudy
1:56 AM 63.0 °F 63.0 °F 100% 29.78 in 6.0 mi Calm Calm - N/A   Clear
2:56 AM 63.0 °F 63.0 °F 100% 29.77 in 6.0 mi Calm Calm - N/A   Clear
3:56 AM 61.9 °F 61.9 °F 100% 29.77 in 4.0 mi Calm Calm - N/A   Clear
4:56 AM 61.0 °F 61.0 °F 100% 29.76 in 8.0 mi ESE 4.6 mph - N/A   Clear
5:56 AM 59.9 °F 59.9 °F 100% 29.77 in 4.0 mi Calm Calm - N/A   Clear
6:25 AM 60.8 °F 60.8 °F 100% 29.78 in 6.0 mi Calm Calm - N/A Fog Clear
7:56 AM 65.8 °F 63.0 °F 90% 29.78 in 10.0 mi SE 4.6 mph - N/A   Partly Cloudy
8:56 AM 70.0 °F 63.0 °F 78% 29.78 in 10.0 mi SW 3.5 mph - N/A   Scattered Clouds
9:34 AM 71.6 °F 62.6 °F 73% 29.79 in 10.0 mi West 3.5 mph - N/A   Mostly Cloudy
9:56 AM 70.0 °F 61.9 °F 75% 29.78 in 10.0 mi West 5.8 mph - N/A   Mostly Cloudy
10:03 AM 69.8 °F 60.8 °F 73% 29.79 in 10.0 mi WNW 5.8 mph - N/A   Overcast
10:10 AM 71.6 °F 60.8 °F 69% 29.79 in 10.0 mi NW 9.2 mph - N/A   Overcast
10:56 AM 73.9 °F 59.9 °F 61% 29.77 in 10.0 mi WNW 9.2 mph - N/A   Scattered Clouds
11:56 AM 74.8 °F 59.9 °F 60% 29.77 in 10.0 mi NW 8.1 mph - N/A   Mostly Cloudy
12:56 PM 73.9 °F 55.9 °F 53% 29.75 in 10.0 mi WNW 6.9 mph - N/A   Mostly Cloudy
1:56 PM 74.8 °F 57.9 °F 55% 29.74 in 10.0 mi NNW 5.8 mph - N/A   Mostly Cloudy
2:56 PM 73.9 °F 59.0 °F 59% 29.73 in 10.0 mi WNW 10.4 mph - N/A   Mostly Cloudy
3:56 PM 73.9 °F 57.9 °F 57% 29.73 in 10.0 mi NW 6.9 mph - N/A   Scattered Clouds
4:56 PM 73.9 °F 56.8 °F 55% 29.73 in 10.0 mi WNW 11.5 mph - N/A   Scattered Clouds
6:56 PM 68.9 °F 50.9 °F 53% 29.78 in 10.0 mi North 8.1 mph - N/A   Partly Cloudy
7:56 PM 64.9 °F 50.0 °F 58% 29.80 in 10.0 mi NNE 4.6 mph - N/A   Clear
8:56 PM 57.9 °F 50.9 °F 77% 29.80 in 10.0 mi Calm Calm - N/A   Clear
9:56 PM 55.9 °F 52.9 °F 89% 29.82 in 10.0 mi ENE 4.6 mph - N/A   Scattered Clouds
10:56 PM 54.9 °F 50.9 °F 86% 29.82 in 10.0 mi ENE 3.5 mph - N/A   Clear
11:56 PM 52.0 °F 50.0 °F 93% 29.83 in 10.0 mi Calm Calm - N/A   Partly Cloudy